Location: Te Maire Creek
(41.1333°S, 175.9167°E)
Time: 01:28:53
(UTC+00:00)

Cosmos 1844 - Pass Details

Date: 19 May 2024
Orbit: 821 x 868 km, 70.9° (Epoch: 18 June)

Event Time Altitude Azimuth Distance (km) Brightness Sun altitude
Exits shadow 18:33:37 - 211° (SSW) 3,100 6.2 -9.3°
Reaches altitude 10° 18:35:21 10° 214° (SW) 2,449 5.6 -9.0°
Maximum altitude 18:40:44 50° 288° (WNW) 1,055 3.9 -8.0°
Drops below altitude 10° 18:46:06 10° 1° (N) 2,433 6.4 -7.1°
Sets 18:48:35 0° 6° (N) 3,364 7.2 -6.6°
